Hallock, MN

2:55 AM CDT on July 13, 2014 (GMT -0500)
Hallock Municipal (KHCO) Elev 820 ft | 48.75 °N, 96.94 °W | Change Station

Current weather conditions updated 22 minutes ago

Scattered Clouds
Scattered Clouds
57 °F
Feels Like 57 °F
N
8
Wind Variable Wind from WSW

Today is forecast to be Much Cooler than yesterday.

Today
High -- | Low -- °F
--% Chance of Precip.
Yesterday
High -- | Low -- °F
Precip. -- in
5:38 AM 9:27 PM
Full, 99% visible
Pressure 29.91 in
Visibility 10.0 miles
Clouds Scattered Clouds 7000 ft
Scattered Clouds 8500 ft
Dew Point 55 °F
Humidity 94%
Rainfall 0.09 in
Snow Depth Not available.
UV 0 out of 12
Pollen 4.20 out of 12
Air Quality Not available.
Flu Activity Sporadic
METAR KHCO 130733Z AUTO 25007KT 10SM SCT070 SCT085 14/13 A2991 RMK AO2 P0001

More Conditions Fewer Conditions

Pressure 29.91 in
Visibility 10.0 miles
Clouds Scattered Clouds 7000 ft
Scattered Clouds 8500 ft
Dew Point 55 °F
Humidity 94%
Rainfall 0.09 in
Snow Depth Not available.
UV 0 out of 12
Pollen 4.20 out of 12
Air Quality Not available.
Flu Activity Sporadic
METAR KHCO 130733Z AUTO 25007KT 10SM SCT070 SCT085 14/13 A2991 RMK AO2 P0001

More Conditions Fewer Conditions

10-Day Weather Forecast

Almanac

Astronomy

Jul. 13, 2014 Rise Set
Actual Time 5:38 AM CDT 9:27 PM CDT
Civil Twilight 4:58 AM CDT 10:08 PM CDT
Nautical Twilight 4:02 AM CDT 11:03 PM CDT
Astronomical Twilight 2:36 AM CDT 12:27 AM CDT
Moon 10:01 PM CDT 7:22 AM CDT
Length of Visible Light 17h 10m
Length of Day
15h 49m
Tomorrow will be 1m 50s shorter.
Full, 99% of the Moon is Illuminated
Today
Full
Jul 18
Last Quarter
Jul 26
New
Aug 3
First Quarter
Aug 10
Full

Today's Extremes

State Highs State Lows

Community

WunderPhotos

Upload Photos

1,733,141 photos uploaded!

Nearby

Snow Depth

Station Depth Elevation
No new snow has been reported.

Earthquake Activity

City Distance Mag. Time & Date
No recent earthquake activity has been reported nearby.
Minimum magnitude displayed is 2.5.

Coastal Water Temperatures

Place Temperature
No Stations Reporting

Nearby Weather Stations

Station Location Temp. Dew Point Humidity Wind Precip. Elev Updated Type
RAWS KITTSON MN, Karlstad, MN 56 °F 55 °F 96% West  at  3 mph 0.01 in / hr 1060 ft 1:32 AM CDT MADIS

Show More Stations Show Fewer Stations